AirNav   Air Wisconsin pilot careers
 
 412 users online  

2Y4 Rockwell City Municipal Airport
Rockwell City, Iowa, USA

GOING TO ROCKWELL CITY?


FAA INFORMATION EFFECTIVE 06 DECEMBER 2018

Location

FAA Identifier: 2Y4
Lat/Long: 42-23-16.1600N / 094-37-08.0500W
42-23.269333N / 094-37.134167W
42.3878222 / -94.6189028
(estimated)
Elevation: 1215.9 ft. / 370.6 m (surveyed)
Variation: 05E (1985)
From city: 1 mile SE of ROCKWELL CITY, IA
Time zone: UTC -6 (UTC -5 during Daylight Saving Time)
Zip code: 50579

Airport Operations

Airport use: Open to the public
Activation date: 10/1967
Control tower: no
ARTCC: MINNEAPOLIS CENTER
FSS: FORT DODGE FLIGHT SERVICE STATION
NOTAMs facility: FOD (NOTAM-D service available)
Attendance: UNATNDD
Wind indicator: lighted
Segmented circle: no
Lights: DUSK-DAWN. FOR MIRL RY 12/30 KEY 122.8 3 TIMES HIGH INTST ONLY.

Airport Communications

CTAF/UNICOM: 122.8

Nearby radio navigation aids

VOR radial/distance  VOR name  Freq  Var
FODr220/19.6FORT DODGE VORTAC113.5007E

 
NDB name  Hdg/Dist  Freq  Var  ID
SAC CITY084/16.135604ESKI ... -.- ..
POCAHONTAS174/21.642802EPOH .--. --- ....
JEFFERSON328/25.639103EEFW . ..-. .--
WEBSTER CITY261/33.432303EEBS . -... ...

Airport Services

Fuel available: 100LL
FOR FUEL CALL POLICE AT (712) 297-7583.
Parking: tiedowns
Airframe service: NONE
Powerplant service: NONE
Bottled oxygen: NONE
Bulk oxygen: NONE

Runway Information

Runway 12/30

Dimensions: 3503 x 60 ft. / 1068 x 18 m
Surface: concrete, in fair condition
Runway edge lights: medium intensity
RUNWAY 12  RUNWAY 30
Latitude: 42-23.414333N42-23.124167N
Longitude: 094-37.470333W094-36.798000W
Elevation: 1215.9 ft.1214.9 ft.
Traffic pattern: leftleft
Runway heading: 115 magnetic, 120 true295 magnetic, 300 true
Displaced threshold: 1205 ft.no
Declared distances: TORA:3500 TODA:3500 ASDA:3500 LDA:2300TORA:3500 TODA:3500 ASDA:3500 LDA:3500
Markings: basic, in fair conditionbasic, in fair condition
Obstructions: 165 ft. bldg, 2300 ft. from runway, 40 ft. left of centerline, 12:1 slope to clear
APCH RATIO 21:1 FM DSPLCD THR.
64 ft. tree, 602 ft. from runway, 122 ft. left of centerline, 6:1 slope to clear

Airport Ownership and Management from official FAA records

Ownership: Publicly-owned
Owner: ROCKWELL CITY
335 MAIN
ROCKWELL CITY, IA 50579
Phone 712-297-7041
Manager: PHILIP HAMMEN
335 MAIN
ROCKWELL CITY, IA 50579
Phone 712-297-7041

Airport Operational Statistics

Aircraft based on the field: 10
Single engine airplanes: 10
    
Aircraft operations: avg 57/week *
57% transient general aviation
43% local general aviation
* for 12-month period ending 17 August 2017

Additional Remarks

RADIO CTLD ACFT INVOF ARPT.

Instrument Procedures

There are no published instrument procedures at 2Y4.

Some nearby airports with instrument procedures:

KSKI - Sac City Municipal Airport (16 nm W)
KFOD - Fort Dodge Regional Airport (21 nm NE)
KPOH - Pocahontas Municipal Airport (21 nm N)
KCIN - Arthur N Neu Airport (22 nm S)
KEFW - Jefferson Municipal Airport (26 nm SE)
 
Loc | Ops | Rwys | IFR | FBO | Links
Com | Nav | Svcs | Stats | Notes


 
Area around 2Y4 (Rockwell City Municipal Airport)
 
Road maps at: MapQuest Bing Google
 
Aerial photo
No photo
 
Sectional chart

 
Airport distance calculator
Flying to Rockwell City Municipal Airport? Find the distance to fly.

From to 2Y4

Sunrise and sunset
Times for 15-Dec-2018
 Local
(UTC-6)
 Zulu
(UTC)
Morning civil twilight07:1013:10
Sunrise07:4213:42
Sunset16:4522:45
Evening civil twilight17:1723:17

Current date and time
Zulu (UTC)  15-Dec-2018 07:28:51
Local (UTC-6)  15-Dec-2018 01:28:51
 
METAR
KFOD 
22nm NE 
150656Z AUTO 00000KT 5SM BR CLR M07/M08 A3018 RMK AO2 SLP263 T10671078 FZRANO
KCIN 
22nm S 
150715Z AUTO 00000KT 10SM CLR M07/M07 A3018 RMK AO2
KSLB 
29nm NW 
150715Z AUTO 25007KT 10SM CLR M03/M03 A3015 RMK AO2
KEBS 
33nm E 
150715Z AUTO 09003KT 10SM CLR M05/M05 A3017 RMK AO2
KPRO 
39nm SE 
150635Z AUTO 30004KT 10SM CLR M04/M06 A3020 RMK AO2 T10451056
KBNW 
41nm SE 
150715Z AUTO 35003KT 10SM CLR M01/M04 A3017 RMK AO2
KDNS 
42nm SW 
150715Z AUTO 00000KT 8SM CLR M07/M07 A3020 RMK AO2
KADU 
43nm S 
150715Z AUTO 00000KT 10SM CLR M08/M10 A3018 RMK AO2
KCAV 
43nm NE 
150715Z AUTO 00000KT 9SM CLR M05/M06 A3018 RMK AO2 PWINO
KAXA 
44nm N 
150715Z AUTO 12004KT 10SM CLR M05/M05 A3016 RMK AO2 PWINO
TAF
KFOD 
22nm NE 
150520Z 1506/1606 31003KT 3SM BR SKC FM150700 VRB03KT 1SM BR SCT010 TEMPO 1511/1514 1/2SM FG BKN010 FM151400 VRB03KT 2SM BR SCT010 FM151500 VRB03KT 5SM BR SCT020 FM151700 19005KT P6SM FEW200
NOTAMs
Click for the latest NOTAMs
NOTAMs are issued by the DoD/FAA and will open in a separate window not controlled by AirNav.

 

 
 

FBO, Fuel Providers, and Aircraft Ground Support

  
 Business Name 
 
 Contact 
 
 Services / Description 
 
Fuel Prices
 
Comments
  
City of Rockwell City 712-297-7041
no information available

If you are affiliated with City of Rockwell City and would like to show here your services, contact info, web link, logo, and more, click here
100LL
AS $5.10 
 Updated 03-Dec-2018
 
   1 read write
AS=Assisted/Self Service
Update Fuel Prices
 

Would you like to see your business listed on this page?

 If your business provides an interesting product or service to pilots, flight crews, aircraft, or users of the Rockwell City Municipal Airport, you should consider listing it here.  To start the listing process, click on the button below
 
Add a business
 

Other Pages about Rockwell City Municipal Airport

Page from the Iowa Airport Directory
 
Update a link
 
Copyright © AirNav, LLC. All rights reserved. Privacy Policy  Contact